Weather History for KBFF - November, 2011

Change the Weather History Date:

Tuesday, November 15, 2011

  Actual Average Record
Temperature  
Mean Temperature 30 °F 36 °F  
Max Temperature 40 °F 51 °F 78 °F (1942)
Min Temperature 19 °F 22 °F -5 °F (1955)
Degree Days  
Heating Degree Days 35 29  
Month to date heating degree days 418 382  
Since 1 July heating degree days 962 1073  
Cooling Degree Days 0 0  
Month to date cooling degree days 0 0  
Year to date cooling degree days 932 724  
Moisture  
Dew Point 14 °F    
Average Humidity 54    
Maximum Humidity 74    
Minimum Humidity 34    
Precipitation  
Precipitation 0.00 in 0.02 in 0.60 in (1987)
Month to date precipitation 0.26 0.37  
Year to date precipitation 18.39 14.99  
Snow  
Snow 0.00 in 0.20 in 4.90 in (1987)
Month to date snowfall 3.2 2.7  
Since 1 July snowfall 3.2 5.9  
Snow Depth 0.00 in    
Sea Level Pressure  
Sea Level Pressure 29.93 in    
Wind  
Wind Speed 9 mph (NNW)    
Max Wind Speed 23 mph    
Max Gust Speed 28 mph    
Visibility 10 miles    
Events      
T = Trace of Precipitation, MM = Missing Value Source: NWS Daily Summary

Daily Weather History Graph

Daily Weather History Graph

Search for Another Location

Airport or City:

Trip Planner

Search our weather history database for the weather conditions in past years. The results will help you decide how hot, cold, wet, or windy it might be!

Date:

Astronomy

Nov. 15, 2011 Rise Set
Actual Time 6:43 AM MST 4:33 PM MST
Civil Twilight 6:13 AM MST 5:03 PM MST
Nautical Twilight 5:40 AM MST 5:37 PM MST
Astronomical Twilight 5:07 AM MST 6:10 PM MST
Moon 8:45 PM MST (11/15) 10:45 AM MST (11/15)
Length of Visible Light 10h 49m
Length of Day
9h 50m
Waning Gibbous, 78% of the Moon is Illuminated
Nov 15
Waning Gibbous
Nov 18
Last Quarter
Nov 24
New
Dec 2
First Quarter
Dec 10
Full

Hourly Weather History & Observations

Time (MST) Temp. Windchill Dew Point Humidity Pressure Visibility Wind Dir Wind Speed Gust Speed Precip Events Conditions
12:53 AM 32.0 °F 27.5 °F 16.0 °F 52% 29.64 in 10.0 mi NNW 4.6 mph - N/A   Clear
1:53 AM 33.1 °F 30.0 °F 16.0 °F 50% 29.65 in 10.0 mi NNW 3.5 mph - N/A   Clear
2:53 AM 30.9 °F - 16.0 °F 54% 29.66 in 10.0 mi Calm Calm - N/A   Clear
3:53 AM 30.9 °F 24.3 °F 15.1 °F 52% 29.69 in 10.0 mi WNW 6.9 mph - N/A   Clear
4:53 AM 34.0 °F 26.6 °F 14.0 °F 44% 29.71 in 10.0 mi West 9.2 mph - N/A   Clear
5:53 AM 33.8 °F 27.7 °F 14.0 °F 44% 29.72 in 10.0 mi West 6.9 mph - N/A   Clear
6:53 AM 30.9 °F 22.8 °F 14.0 °F 50% 29.78 in 10.0 mi West 9.2 mph - N/A   Clear
7:53 AM 35.1 °F 30.1 °F 16.0 °F 46% 29.86 in 10.0 mi North 5.8 mph - N/A   Clear
8:53 AM 35.1 °F 23.8 °F 19.9 °F 54% 29.90 in 10.0 mi North 20.7 mph 26.5 mph N/A   Clear
9:53 AM 37.0 °F 26.4 °F 18.0 °F 46% 29.94 in 10.0 mi NNW 20.7 mph 27.6 mph N/A   Clear
10:53 AM 37.9 °F 28.2 °F 16.0 °F 41% 29.96 in 10.0 mi North 18.4 mph 25.3 mph N/A   Clear
11:53 AM 37.9 °F 28.2 °F 16.0 °F 41% 29.95 in 10.0 mi NNW 18.4 mph 24.2 mph N/A   Clear
12:53 PM 37.9 °F 30.0 °F 15.1 °F 39% 29.97 in 10.0 mi NNW 12.7 mph - N/A   Clear
1:53 PM 39.0 °F 31.0 °F 14.0 °F 36% 29.95 in 10.0 mi NNW 13.8 mph 17.3 mph N/A   Clear
2:53 PM 37.4 °F 30.3 °F 14.0 °F 38% 29.92 in 10.0 mi NNE 10.4 mph - N/A   Clear
3:53 PM 36.0 °F 29.6 °F 14.0 °F 41% 29.99 in 10.0 mi North 8.1 mph - N/A   Partly Cloudy
4:53 PM 27.0 °F 19.5 °F 12.0 °F 53% 30.02 in 10.0 mi NNE 6.9 mph - N/A   Clear
5:53 PM 24.1 °F 15.2 °F 10.9 °F 57% 30.06 in 10.0 mi NNE 8.1 mph - N/A   Clear
6:53 PM 21.9 °F 12.5 °F 9.0 °F 58% 30.11 in 10.0 mi NNE 8.1 mph - N/A   Clear
7:53 PM 19.9 °F 11.1 °F 9.0 °F 62% 30.13 in 10.0 mi North 6.9 mph - N/A   Partly Cloudy
8:53 PM 23.0 °F 17.0 °F 10.0 °F 58% 30.14 in 10.0 mi NW 4.6 mph - N/A   Scattered Clouds
9:53 PM 24.1 °F 18.2 °F 14.0 °F 65% 30.15 in 10.0 mi North 4.6 mph - N/A   Mostly Cloudy
10:53 PM 23.0 °F 18.4 °F 15.1 °F 72% 30.17 in 10.0 mi NNW 3.5 mph - N/A   Mostly Cloudy
11:53 PM 23.0 °F - 15.1 °F 72% 30.18 in 10.0 mi Calm Calm - N/A   Overcast